AG7BI Weather Reports


time (UTC)temp
C
wind
direction
speed
KPH
gust
KPH
rain 1hr
cm
rain 24hr
cm
rain mn
cm
humidity
%
barometer
mb
20260503225052 21 236 1.6 3.2 0.00 0.00 0.00 44 1012.0
20260503224552 21 190 1.6 1.6 0.00 0.00 0.00 44 1011.7
20260503224052 21 120 1.6 3.2 0.00 0.00 0.00 44 1011.7
20260503223552 21 176 3.2 4.8 0.00 0.00 0.00 43 1011.9
20260503223052 21 352 6.4 6.4 0.00 0.00 0.00 43 1012.0
20260503222552 21 217 1.6 4.8 0.00 0.00 0.00 42 1012.1
20260503222052 21 249 1.6 9.7 0.00 0.00 0.00 43 1012.2
20260503221552 21 211 3.2 3.2 0.00 0.00 0.00 43 1012.2
20260503221052 21 164 3.2 6.4 0.00 0.00 0.00 43 1012.2
20260503220552 21 107 3.2 4.8 0.00 0.00 0.00 43 1012.2
20260503220052 21 126 1.6 1.6 0.00 0.00 0.00 42 1012.4
20260503215552 21 121 3.2 3.2 0.00 0.00 0.00 40 1012.3
20260503215052 21 143 1.6 3.2 0.00 0.00 0.00 40 1012.3
20260503214552 21 107 1.6 1.6 0.00 0.00 0.00 41 1012.4
20260503214052 21 287 1.6 6.4 0.00 0.00 0.00 39 1012.7
20260503213552 21 116 4.8 4.8 0.00 0.00 0.00 43 1012.5
20260503213052 21 265 1.6 1.6 0.00 0.00 0.00 40 1012.4
20260503212552 21 0 0.0 3.2 0.00 0.00 0.00 39 1012.5
20260503212052 21 252 1.6 1.6 0.00 0.00 0.00 42 1012.5
20260503211552 21 180 3.2 3.2 0.00 0.00 0.00 42 1012.9
20260503211052 21 135 4.8 8.0 0.00 0.00 0.00 43 1012.6
20260503210552 20 138 1.6 3.2 0.00 0.00 0.00 41 1012.8
20260503210052 20 128 1.6 3.2 0.00 0.00 0.00 42 1012.6
20260503205552 20 227 3.2 3.2 0.00 0.00 0.00 47 1012.8
20260503205052 20 145 1.6 1.6 0.00 0.00 0.00 45 1013.0
20260503204552 20 139 1.6 3.2 0.00 0.00 0.00 46 1013.2
20260503204052 20 0 0.0 1.6 0.00 0.00 0.00 49 1012.9
20260503203552 20 191 1.6 3.2 0.00 0.00 0.00 52 1013.1
20260503203052 20 189 1.6 4.8 0.00 0.00 0.00 50 1013.2
20260503202552 20 189 1.6 1.6 0.00 0.00 0.00 51 1013.3
20260503202052 20 157 1.6 3.2 0.00 0.00 0.00 51 1013.3
20260503201552 20 190 1.6 3.2 0.00 0.00 0.00 52 1013.2
20260503201052 20 326 1.6 4.8 0.00 0.00 0.00 50 1013.3
20260503200552 20 173 3.2 3.2 0.00 0.00 0.00 49 1013.1
20260503200052 20 136 6.4 6.4 0.00 0.00 0.00 48 1013.5
20260503195552 20 244 3.2 3.2 0.00 0.00 0.00 47 1013.6
20260503195052 20 348 4.8 6.4 0.00 0.00 0.00 43 1013.6
20260503194552 20 172 1.6 3.2 0.00 0.00 0.00 45 1013.6
20260503194052 21 262 3.2 3.2 0.00 0.00 0.00 45 1013.6
20260503193552 20 0 0.0 1.6 0.00 0.00 0.00 49 1013.7
20260503193052 20 0 0.0 1.6 0.00 0.00 0.00 45 1013.8
20260503192552 20 0 0.0 3.2 0.00 0.00 0.00 45 1014.0
20260503192052 20 106 1.6 3.2 0.00 0.00 0.00 45 1013.8
20260503191552 20 224 3.2 6.4 0.00 0.00 0.00 45 1013.9
20260503191052 20 0 0.0 4.8 0.00 0.00 0.00 46 1013.8
20260503190552 19 119 1.6 3.2 0.00 0.00 0.00 50 1014.1
20260503190052 18 138 1.6 1.6 0.00 0.00 0.00 58 1014.1
20260503185552 19 179 3.2 3.2 0.00 0.00 0.00 53 1014.1
20260503185052 19 105 3.2 3.2 0.00 0.00 0.00 54 1014.1
20260503184552 19 109 3.2 3.2 0.00 0.00 0.00 54 1014.2
20260503184052 19 159 1.6 3.2 0.00 0.00 0.00 51 1014.1
20260503183552 19 0 0.0 3.2 0.00 0.00 0.00 53 1014.2
20260503183052 18 0 0.0 1.6 0.00 0.00 0.00 55 1014.3
20260503182552 18 0 0.0 1.6 0.00 0.00 0.00 57 1014.2
20260503182052 18 109 1.6 3.2 0.00 0.00 0.00 57 1014.4
20260503181552 18 0 0.0 1.6 0.00 0.00 0.00 56 1014.3
20260503181052 18 0 0.0 1.6 0.00 0.00 0.00 59 1014.4
20260503180552 18 0 0.0 3.2 0.00 0.00 0.00 60 1014.4
20260503180052 18 359 1.6 1.6 0.00 0.00 0.00 58 1014.4
20260503175552 17 207 3.2 3.2 0.00 0.00 0.00 57 1014.5
20260503175052 18 0 0.0 1.6 0.00 0.00 0.00 60 1014.5
20260503174552 18 11 4.8 4.8 0.00 0.00 0.00 58 1014.5
20260503174052 17 126 1.6 3.2 0.00 0.00 0.00 60 1014.6
20260503173552 17 0 0.0 3.2 0.00 0.00 0.00 59 1014.7
20260503173052 17 180 1.6 3.2 0.00 0.00 0.00 58 1014.8
20260503172552 17 154 1.6 1.6 0.00 0.00 0.00 61 1014.8
20260503172052 17 227 3.2 3.2 0.00 0.00 0.00 60 1014.9
20260503171552 17 0 0.0 1.6 0.00 0.00 0.00 62 1014.9
20260503171052 17 140 1.6 1.6 0.00 0.00 0.00 60 1014.9
20260503170552 17 153 3.2 6.4 0.00 0.00 0.00 61 1014.8
20260503150552 15 242 4.8 4.8 0.00 0.00 0.00 66 1015.1
20260503131052 13 0 0.0 3.2 0.00 0.00 0.00 65 1014.6
20260503130552 13 139 3.2 3.2 0.00 0.00 0.00 63 1014.6
20260503110552 12 125 3.2 3.2 0.00 0.00 0.00 70 1015.0
20260503081552 12 189 1.6 1.6 0.00 0.00 0.00 70 1015.2
20260503081052 12 180 1.6 1.6 0.00 0.00 0.00 67 1015.1
20260503080552 12 0 0.0 1.6 0.00 0.00 0.00 70 1015.1
20260503072552 12 0 0.0 1.6 0.00 0.00 0.00 69 1014.9
20260503072052 12 171 1.6 1.6 0.00 0.00 0.00 70 1015.0
20260503071552 12 162 1.6 3.2 0.00 0.00 0.00 68 1014.9
20260503071052 12 0 0.0 3.2 0.00 0.00 0.00 68 1014.5
20260503070552 12 0 0.0 1.6 0.00 0.00 0.00 68 1014.9
20260503055052 13 166 1.6 1.6 0.00 0.00 0.00 62 1014.7
20260503054552 14 107 1.6 1.6 0.00 0.00 0.00 64 1014.7
20260503054052 15 0 0.0 1.6 0.00 0.00 0.00 61 1015.0
20260503053552 15 171 1.6 3.2 0.00 0.00 0.00 62 1014.7
20260503053052 15 162 3.2 3.2 0.00 0.00 0.00 59 1014.6
20260503052552 16 135 3.2 3.2 0.00 0.00 0.00 57 1014.6
20260503052052 16 131 1.6 3.2 0.00 0.00 0.00 54 1014.7
20260503051552 16 179 1.6 3.2 0.00 0.00 0.00 53 1014.6
20260503051052 16 108 1.6 3.2 0.00 0.00 0.00 53 1014.5
20260503050552 16 162 3.2 3.2 0.00 0.00 0.00 53 1014.5
20260503050052 16 171 3.2 3.2 0.00 0.00 0.00 52 1014.7
20260503045552 16 176 3.2 3.2 0.00 0.00 0.00 52 1014.5
20260503045052 16 160 3.2 3.2 0.00 0.00 0.00 51 1014.7
20260503044552 16 177 1.6 3.2 0.00 0.00 0.00 51 1014.5
20260503044052 16 0 0.0 1.6 0.00 0.00 0.00 52 1014.4
20260503043552 16 147 1.6 1.6 0.00 0.00 0.00 52 1014.4
20260503043052 16 0 0.0 1.6 0.00 0.00 0.00 52 1014.4
20260503042552 16 107 1.6 3.2 0.00 0.00 0.00 50 1014.3
20260503042052 16 0 0.0 3.2 0.00 0.00 0.00 51 1014.2
20260503041552 17 116 1.6 3.2 0.00 0.00 0.00 52 1014.1
20260503041052 17 170 1.6 3.2 0.00 0.00 0.00 52 1014.2
20260503040552 17 166 1.6 1.6 0.00 0.00 0.00 51 1014.0
20260503040052 17 209 1.6 3.2 0.00 0.00 0.00 52 1013.9
20260503035552 17 170 1.6 1.6 0.00 0.00 0.00 53 1013.9
20260503035052 17 166 1.6 1.6 0.00 0.00 0.00 52 1014.1
20260503034552 17 179 1.6 1.6 0.00 0.00 0.00 51 1013.9
20260503034052 17 155 4.8 4.8 0.00 0.00 0.00 51 1013.9
20260503033552 17 195 1.6 1.6 0.00 0.00 0.00 52 1013.8
20260503033052 17 148 3.2 3.2 0.00 0.00 0.00 52 1013.8
20260503032552 17 153 1.6 3.2 0.00 0.00 0.00 51 1013.6
20260503032052 17 169 3.2 3.2 0.00 0.00 0.00 52 1013.6
20260503031552 17 185 1.6 3.2 0.00 0.00 0.00 51 1013.7
20260503031052 17 197 3.2 3.2 0.00 0.00 0.00 52 1013.8
20260503030552 17 0 0.0 1.6 0.00 0.00 0.00 52 1013.7
20260503030052 17 211 3.2 3.2 0.00 0.00 0.00 51 1013.6
20260503025552 17 166 3.2 3.2 0.00 0.00 0.00 52 1013.5
20260503025052 17 121 1.6 3.2 0.00 0.00 0.00 52 1013.5
20260503024552 17 0 0.0 1.6 0.00 0.00 0.00 52 1013.3
20260503024052 18 166 1.6 3.2 0.00 0.00 0.00 51 1013.4
20260503023552 18 215 1.6 3.2 0.00 0.00 0.00 50 1013.3
20260503023052 18 0 0.0 1.6 0.00 0.00 0.00 52 1013.6
20260503022552 18 192 1.6 3.2 0.00 0.00 0.00 50 1013.5
20260503022052 18 201 3.2 3.2 0.00 0.00 0.00 50 1013.4
20260503021552 18 0 0.0 1.6 0.00 0.00 0.00 51 1013.4
20260503021052 18 132 3.2 3.2 0.00 0.00 0.00 52 1013.4
20260503020552 18 0 0.0 3.2 0.00 0.00 0.00 51 1013.3
20260503020052 18 85 3.2 3.2 0.00 0.00 0.00 50 1013.5
20260503015552 18 0 0.0 1.6 0.00 0.00 0.00 52 1013.5
20260503015052 18 247 3.2 4.8 0.00 0.00 0.00 51 1013.6
20260503014552 18 163 3.2 3.2 0.00 0.00 0.00 52 1013.8
20260503014052 18 162 1.6 3.2 0.00 0.00 0.00 53 1013.6
20260503013552 18 168 4.8 4.8 0.00 0.00 0.00 52 1013.6
20260503013052 18 168 1.6 3.2 0.00 0.00 0.00 51 1013.6
20260503012552 18 124 3.2 6.4 0.00 0.00 0.00 50 1013.8
20260503012052 18 134 3.2 3.2 0.00 0.00 0.00 52 1013.8
20260503011552 18 148 1.6 4.8 0.00 0.00 0.00 50 1013.7
20260503011052 18 225 3.2 3.2 0.00 0.00 0.00 48 1013.7
20260503010552 18 186 3.2 6.4 0.00 0.00 0.00 48 1013.5
20260503010052 19 149 1.6 3.2 0.00 0.00 0.00 49 1013.6
20260503005552 19 125 1.6 4.8 0.00 0.00 0.00 48 1013.6
20260503005052 19 227 3.2 3.2 0.00 0.00 0.00 46 1013.8
20260503004552 19 114 3.2 3.2 0.00 0.00 0.00 48 1014.0
20260503004052 19 166 1.6 3.2 0.00 0.00 0.00 51 1013.8
20260503003552 19 113 1.6 1.6 0.00 0.00 0.00 48 1013.8
20260503003052 19 109 3.2 3.2 0.00 0.00 0.00 49 1013.8
20260503002552 19 184 4.8 4.8 0.00 0.00 0.00 50 1014.0
20260503002052 19 148 3.2 6.4 0.00 0.00 0.00 48 1013.7
20260503001552 19 280 3.2 6.4 0.00 0.00 0.00 49 1013.9
20260503001052 19 199 1.6 1.6 0.00 0.00 0.00 50 1014.1
20260503000552 18 0 0.0 1.6 0.00 0.00 0.00 50 1013.9
20260503000052 18 215 4.8 4.8 0.00 0.00 0.00 49 1014.0
20260502235552 18 233 3.2 3.2 0.00 0.00 0.00 49 1013.9
20260502235052 18 109 3.2 3.2 0.00 0.00 0.00 49 1014.0
20260502234552 18 275 3.2 4.8 0.00 0.00 0.00 49 1014.3
20260502234052 18 194 3.2 3.2 0.00 0.00 0.00 53 1014.1
20260502233552 18 182 3.2 4.8 0.00 0.00 0.00 51 1014.3
20260502233052 18 0 0.0 1.6 0.00 0.00 0.00 53 1014.3
20260502232552 18 187 1.6 1.6 0.00 0.00 0.00 55 1014.4
20260502232052 18 111 4.8 6.4 0.00 0.00 0.00 53 1014.5
20260502231552 18 203 1.6 4.8 0.00 0.00 0.00 53 1014.5
20260502231052 18 178 1.6 3.2 0.00 0.00 0.00 54 1014.7
20260502230552 18 170 1.6 3.2 0.00 0.00 0.00 56 1014.6
20260502230052 18 143 1.6 1.6 0.00 0.00 0.00 55 1014.6
20260502225552 18 197 3.2 3.2 0.00 0.00 0.00 55 1014.9